FW1369 Weather Reports


time (UTC)temp
C
wind
direction
speed
KPH
gust
KPH
rain 1hr
cm
rain 24hr
cm
rain mn
cm
humidity
%
barometer
mb
20260505100548 16 213 1.6 14.5 0.00 0.00 0.00 71 1000.3
20260505100048 16 182 1.6 12.9 0.00 0.00 0.00 71 1000.3
20260505095546 16 233 3.2 11.3 0.00 0.00 0.00 72 1000.2
20260505095046 16 202 0.0 8.0 0.00 0.00 0.00 72 1000.3
20260505094546 16 201 1.6 8.0 0.00 0.00 0.00 73 1000.2
20260505094046 16 153 1.6 11.3 0.00 0.00 0.00 74 1000.1
20260505093546 16 15 1.6 11.3 0.00 0.00 0.00 75 1000.0
20260505093046 15 293 1.6 11.3 0.00 0.00 0.00 75 1000.0
20260505092546 15 287 1.6 11.3 0.00 0.00 0.00 76 1000.1
20260505092044 15 311 3.2 9.7 0.00 0.00 0.00 77 1000.2
20260505091542 15 240 1.6 11.3 0.00 0.00 0.00 77 1000.2
20260505091042 15 46 3.2 19.3 0.00 0.00 0.00 77 1000.3
20260505090541 14 184 3.2 19.3 0.00 0.00 0.00 75 1000.3
20260505090041 15 211 1.6 9.7 0.00 0.00 0.00 74 1000.5
20260505085538 15 157 1.6 6.4 0.00 0.00 0.00 73 1000.6
20260505085038 15 332 0.0 0.0 0.00 0.00 0.00 72 1000.7
20260505084544 15 332 0.0 0.0 0.00 0.00 0.00 72 1000.8
20260505084036 15 332 0.0 0.0 0.00 0.00 0.00 72 1000.7
20260505083537 15 332 0.0 0.0 0.00 0.00 0.00 71 1000.8
20260505083036 15 332 0.0 0.0 0.00 0.00 0.00 71 1000.7
20260505082533 16 332 0.0 0.0 0.00 0.00 0.00 72 1000.8
20260505082033 16 332 0.0 0.0 0.00 0.00 0.00 72 1000.9
20260505081532 16 332 0.0 0.0 0.00 0.00 0.00 71 1000.9
20260505081032 16 286 0.0 0.0 0.00 0.00 0.00 71 1000.9
20260505080529 16 238 0.0 6.4 0.00 0.00 0.00 70 1000.8
20260505080029 16 179 0.0 8.0 0.00 0.00 0.00 70 1000.7
20260505075528 16 232 1.6 8.0 0.00 0.00 0.00 69 1000.7
20260505075032 16 202 0.0 6.4 0.00 0.00 0.00 69 1000.8
20260505074534 17 214 1.6 6.4 0.00 0.00 0.00 69 1000.7
20260505074027 17 205 1.6 6.4 0.00 0.00 0.00 69 1000.8
20260505073526 17 306 1.6 6.4 0.00 0.00 0.00 69 1000.9
20260505073037 17 274 0.0 4.8 0.00 0.00 0.00 68 1001.0
20260505072525 17 269 0.0 4.8 0.00 0.00 0.00 68 1001.1
20260505072027 17 298 0.0 6.4 0.00 0.00 0.00 68 1001.2
20260505071525 17 220 1.6 12.9 0.00 0.00 0.00 67 1001.3
20260505071026 17 286 1.6 14.5 0.00 0.00 0.00 67 1001.4
20260505070524 17 169 3.2 14.5 0.00 0.00 0.00 67 1001.6
20260505070036 17 313 3.2 24.1 0.00 0.00 0.00 67 1001.5
20260505065523 17 243 3.2 24.1 0.00 0.00 0.00 67 1001.6
20260505065024 17 231 3.2 12.9 0.00 0.00 0.00 67 1001.5
20260505064524 17 305 1.6 8.0 0.00 0.00 0.00 67 1001.5
20260505064024 17 258 3.2 8.0 0.00 0.00 0.00 67 1001.4
20260505063523 17 267 3.2 17.7 0.00 0.00 0.00 67 1001.3
20260505063023 17 284 3.2 19.3 0.00 0.00 0.00 67 1001.2
20260505062523 17 131 3.2 19.3 0.00 0.00 0.00 68 1001.2
20260505062022 17 201 3.2 11.3 0.00 0.00 0.00 68 1001.1
20260505061529 17 156 1.6 12.9 0.00 0.00 0.00 68 1001.3
20260505061023 16 299 1.6 12.9 0.00 0.00 0.00 68 1001.2
20260505060523 16 173 3.2 12.9 0.00 0.00 0.00 68 1001.2
20260505060022 16 284 1.6 12.9 0.00 0.00 0.00 68 1001.2
20260505055521 16 265 1.6 12.9 0.00 0.00 0.00 68 1001.2
20260505055021 16 263 1.6 12.9 0.00 0.00 0.00 68 1001.3
20260505054523 16 217 0.0 6.4 0.00 0.00 0.00 67 1001.3
20260505054022 16 216 0.0 8.0 0.00 0.00 0.00 67 1001.3
20260505053522 16 174 1.6 8.0 0.00 0.00 0.00 67 1001.3
20260505053020 17 12 1.6 8.0 0.00 0.00 0.00 67 1001.3
20260505052520 17 267 0.0 8.0 0.00 0.00 0.00 66 1001.4
20260505052020 17 275 1.6 12.9 0.00 0.00 0.00 66 1001.4
20260505051521 17 231 1.6 12.9 0.00 0.00 0.00 66 1001.4
20260505051020 17 169 1.6 11.3 0.00 0.00 0.00 66 1001.4
20260505050523 17 177 1.6 8.0 0.00 0.00 0.00 66 1001.3
20260505041524 16 335 1.6 8.0 0.00 0.00 0.00 62 1001.7
20260505041013 16 234 0.0 8.0 0.00 0.00 0.00 62 1001.7
20260505040512 16 315 0.0 8.0 0.00 0.00 0.00 62 1001.8
20260505040010 16 296 0.0 9.7 0.00 0.00 0.00 62 1001.8
20260505035514 16 154 0.0 9.7 0.00 0.00 0.00 62 1001.8
20260505035010 16 213 0.0 6.4 0.00 0.00 0.00 63 1001.7
20260505034519 16 301 1.6 6.4 0.00 0.00 0.00 63 1001.8
20260505034010 16 177 0.0 8.0 0.00 0.00 0.00 64 1001.7
20260505033510 16 288 1.6 14.5 0.00 0.00 0.00 64 1001.7
20260505033010 16 311 1.6 20.9 0.00 0.00 0.00 64 1001.7
20260505032510 15 360 1.6 20.9 0.00 0.00 0.00 65 1001.7
20260505032014 15 286 1.6 8.0 0.00 0.00 0.00 64 1002.0
20260505031520 14 171 1.6 8.0 0.00 0.00 0.00 63 1001.9
20260505031009 14 211 1.6 6.4 0.00 0.00 0.00 62 1001.8
20260505030508 13 211 0.0 6.4 0.00 0.00 0.00 62 1001.8
20260505030008 13 208 1.6 6.4 0.00 0.00 0.00 62 1001.6
20260505025508 13 284 0.0 3.2 0.00 0.00 0.00 62 1001.6
20260505025011 13 294 0.0 3.2 0.00 0.00 0.00 61 1001.7
20260505024509 13 294 0.0 4.8 0.00 0.00 0.00 61 1001.7
20260505024007 13 294 0.0 4.8 0.00 0.00 0.00 61 1001.6
20260505023507 13 295 0.0 3.2 0.00 0.00 0.00 61 1001.5
20260505023010 13 295 1.6 3.2 0.00 0.00 0.00 61 1001.5
20260505022508 13 296 0.0 3.2 0.00 0.00 0.00 61 1001.6
20260505022009 13 298 0.0 0.0 0.00 0.00 0.00 61 1001.7
20260505021509 13 298 0.0 0.0 0.00 0.00 0.00 62 1001.8
20260505021010 13 298 0.0 1.6 0.00 0.00 0.00 62 1001.9
20260505020506 13 298 0.0 1.6 0.00 0.00 0.00 62 1001.9
20260505020006 13 298 0.0 1.6 0.00 0.00 0.00 62 1001.9
20260505015506 13 298 0.0 1.6 0.00 0.00 0.00 62 1001.9
20260505015006 14 298 0.0 1.6 0.00 0.00 0.00 61 1002.0
20260505014505 14 298 0.0 1.6 0.00 0.00 0.00 61 1001.9
20260505014009 14 298 0.0 1.6 0.00 0.00 0.00 60 1001.9
20260505013509 14 298 0.0 1.6 0.00 0.00 0.00 60 1001.8
20260505013005 15 298 0.0 1.6 0.00 0.00 0.00 59 1001.8
20260505012505 15 298 0.0 1.6 0.00 0.00 0.00 59 1001.8
20260505012005 15 298 0.0 1.6 0.00 0.00 0.00 58 1001.8
20260505011504 15 298 0.0 0.0 0.00 0.00 0.00 57 1001.7
20260505011004 16 298 0.0 1.6 0.00 0.00 0.00 56 1001.8
20260505010504 16 298 0.0 1.6 0.00 0.00 0.00 55 1001.6
20260505010004 16 298 0.0 1.6 0.00 0.00 0.00 54 1001.6
20260505005504 16 298 0.0 1.6 0.00 0.00 0.00 53 1001.6
20260505005004 16 298 0.0 0.0 0.00 0.00 0.00 52 1001.6
20260505004504 17 298 0.0 0.0 0.00 0.00 0.00 51 1001.5
20260505004005 17 298 0.0 1.6 0.00 0.00 0.00 50 1001.5
20260505003506 17 298 0.0 1.6 0.00 0.00 0.00 49 1001.5
20260505003003 18 298 0.0 1.6 0.00 0.00 0.00 49 1001.5
20260505002503 18 298 0.0 1.6 0.00 0.00 0.00 48 1001.5
20260505002003 18 298 0.0 0.0 0.00 0.00 0.00 48 1001.5
20260505001503 18 298 0.0 0.0 0.00 0.00 0.00 47 1001.5
20260505001004 19 298 0.0 0.0 0.00 0.00 0.00 45 1001.5
20260505000501 19 298 0.0 0.0 0.00 0.00 0.00 44 1001.4
20260505000006 20 298 0.0 0.0 0.00 0.00 0.00 43 1001.4
20260504235505 20 298 0.0 0.0 0.00 0.00 0.00 42 1001.4
20260504235001 20 298 0.0 0.0 0.00 0.00 0.00 41 1001.4
20260504234501 20 298 0.0 0.0 0.00 0.00 0.00 41 1001.3
20260504234002 21 298 0.0 0.0 0.00 0.00 0.00 39 1001.3
20260504233504 21 298 0.0 0.0 0.00 0.00 0.00 38 1001.3
20260504233002 21 298 0.0 1.6 0.00 0.00 0.00 37 1001.3
20260504232501 21 298 0.0 1.6 0.00 0.00 0.00 36 1001.3
20260504232001 21 298 0.0 3.2 0.00 0.00 0.00 36 1001.3
20260504231609 21 298 0.0 3.2 0.00 0.00 0.00 36 1001.3
20260504231502 21 298 0.0 3.2 0.00 0.00 0.00 36 1001.3
20260504231100 22 298 0.0 4.8 0.00 0.00 0.00 35 1001.3
20260504230559 22 298 0.0 11.3 0.00 0.00 0.00 35 1001.3
20260504230100 22 298 0.0 11.3 0.00 0.00 0.00 34 1001.2
20260504225600 22 304 0.0 4.8 0.00 0.00 0.00 35 1001.2
20260504225100 22 304 0.0 4.8 0.00 0.00 0.00 34 1001.1
20260504224609 22 304 0.0 8.0 0.00 0.00 0.00 35 1001.1
20260504224059 23 304 1.6 8.0 0.00 0.00 0.00 34 1001.1
20260504223559 23 330 1.6 8.0 0.00 0.00 0.00 33 1001.2
20260504223134 23 349 0.0 9.7 0.00 0.00 0.00 33 1001.2
20260504222558 23 309 0.0 12.9 0.00 0.00 0.00 34 1001.2
20260504222058 23 309 3.2 14.5 0.00 0.00 0.00 33 1001.3
20260504221557 23 294 0.0 14.5 0.00 0.00 0.00 34 1001.2
20260504221100 23 269 3.2 14.5 0.00 0.00 0.00 33 1001.3
20260504220556 23 300 1.6 8.0 0.00 0.00 0.00 34 1001.2
20260504220056 23 185 1.6 11.3 0.00 0.00 0.00 33 1001.3
20260504215556 23 290 1.6 12.9 0.00 0.00 0.00 34 1001.3
20260504215054 23 282 3.2 14.5 0.00 0.00 0.00 32 1001.4
20260504214555 23 255 3.2 14.5 0.00 0.00 0.00 33 1001.5
20260504214054 23 311 1.6 11.3 0.00 0.00 0.00 35 1001.5
20260504213554 23 270 3.2 19.3 0.00 0.00 0.00 33 1001.6
20260504213103 23 279 4.8 19.3 0.00 0.00 0.00 34 1001.6
20260504212554 23 309 6.4 17.7 0.00 0.00 0.00 33 1001.6
20260504212053 23 306 3.2 17.7 0.00 0.00 0.00 35 1001.6
20260504211552 23 268 3.2 17.7 0.00 0.00 0.00 34 1001.7
20260504211052 23 306 4.8 17.7 0.00 0.00 0.00 35 1001.7
20260504210551 23 294 4.8 17.7 0.00 0.00 0.00 38 1001.7
20260504210057 23 276 3.2 17.7 0.00 0.00 0.00 35 1001.7
20260504205552 23 295 1.6 16.1 0.00 0.00 0.00 36 1001.8
20260504205050 23 309 3.2 16.1 0.00 0.00 0.00 36 1001.7
20260504204550 23 295 1.6 9.7 0.00 0.00 0.00 36 1001.8
20260504204049 23 271 3.2 14.5 0.00 0.00 0.00 37 1001.9
20260504203548 23 247 1.6 14.5 0.00 0.00 0.00 36 1001.9
20260504203104 23 196 3.2 14.5 0.00 0.00 0.00 37 1002.1
20260504202546 23 290 3.2 19.3 0.00 0.00 0.00 37 1002.1
20260504202048 23 294 4.8 19.3 0.00 0.00 0.00 36 1002.2
20260504201549 23 272 4.8 19.3 0.00 0.00 0.00 39 1002.3
20260504201044 23 286 4.8 20.9 0.00 0.00 0.00 38 1002.3
20260504200543 22 273 3.2 20.9 0.00 0.00 0.00 38 1002.4
20260504200043 23 263 4.8 20.9 0.00 0.00 0.00 37 1002.4
20260504195542 22 140 1.6 14.5 0.00 0.00 0.00 39 1002.5
20260504195041 22 300 1.6 24.1 0.00 0.00 0.00 38 1002.5
20260504194541 22 291 6.4 24.1 0.00 0.00 0.00 41 1002.6
20260504194043 22 252 3.2 17.7 0.00 0.00 0.00 38 1002.8
20260504193542 22 284 3.2 25.7 0.00 0.00 0.00 41 1002.8
20260504193039 22 298 3.2 25.7 0.00 0.00 0.00 40 1002.8
20260504192539 22 325 4.8 17.7 0.00 0.00 0.00 41 1002.9
20260504192038 22 297 4.8 16.1 0.00 0.00 0.00 41 1003.0
20260504191537 22 281 3.2 17.7 0.00 0.00 0.00 40 1002.9
20260504191038 22 116 4.8 17.7 0.00 0.00 0.00 41 1003.1
20260504190537 22 145 4.8 17.7 0.00 0.00 0.00 42 1003.0
20260504190039 22 344 3.2 22.5 0.00 0.00 0.00 43 1003.1
20260504185535 22 243 4.8 22.5 0.00 0.00 0.00 41 1003.3
20260504185036 22 305 6.4 24.1 0.00 0.00 0.00 40 1003.4
20260504184534 23 205 4.8 24.1 0.00 0.00 0.00 41 1003.3
20260504184034 23 290 3.2 16.1 0.00 0.00 0.00 44 1003.4
20260504183533 22 278 4.8 16.1 0.00 0.00 0.00 44 1003.5
20260504183032 22 327 1.6 19.3 0.00 0.00 0.00 42 1003.5
20260504182532 22 281 6.4 19.3 0.00 0.00 0.00 45 1003.7
20260504182031 22 321 3.2 20.9 0.00 0.00 0.00 46 1003.6
20260504181536 22 360 8.0 19.3 0.00 0.00 0.00 43 1003.6
20260504181033 22 205 6.4 14.5 0.00 0.00 0.00 46 1003.7
20260504180531 22 292 4.8 17.7 0.00 0.00 0.00 47 1003.8
20260504180028 22 224 6.4 20.9 0.00 0.00 0.00 45 1003.7
20260504175527 21 223 3.2 20.9 0.00 0.00 0.00 47 1003.8
20260504175026 22 313 8.0 20.9 0.00 0.00 0.00 45 1003.9
20260504174525 21 253 4.8 17.7 0.00 0.00 0.00 46 1004.0
20260504174024 21 309 4.8 22.5 0.00 0.00 0.00 47 1003.9
20260504173524 21 166 4.8 22.5 0.00 0.00 0.00 48 1004.0
20260504173021 21 328 4.8 27.4 0.00 0.00 0.00 48 1004.0
20260504172520 21 314 3.2 27.4 0.00 0.00 0.00 46 1004.1
20260504172020 21 249 8.0 25.7 0.00 0.00 0.00 48 1004.0
20260504171520 21 302 4.8 25.7 0.00 0.00 0.00 47 1004.1
20260504171020 21 254 3.2 20.9 0.00 0.00 0.00 46 1004.1
20260504170519 21 268 4.8 20.9 0.00 0.00 0.00 48 1004.1
20260504151100 17 287 1.6 19.3 0.00 0.00 0.00 53 1005.2
20260504150559 17 288 6.4 22.5 0.00 0.00 0.00 52 1005.3
20260504150113 17 317 3.2 22.5 0.00 0.00 0.00 50 1005.3
20260504141052 16 355 4.8 17.7 0.00 0.00 0.00 51 1005.4
20260504140551 16 299 4.8 17.7 0.00 0.00 0.00 51 1005.5
20260504130540 14 312 3.2 30.6 0.00 0.00 0.00 56 1005.9
20260504110524 10 289 0.0 9.7 0.00 0.00 0.00 60 1006.1